This demonstration page uses our WeatherBlox Daily Observations layout. Learn more.

38.89511, -77.03637

Hourly Observations for January 7, 2015

Temp ( °F °C ) Dew Point ( °F °C ) Humidity (%) Winds ( mph kmh ) Pressure ( in mb ) Visibility ( mi km ) Precip ( " mm )
12:52 am 00:52 Cloudy 28 -2 12 -11 51 51 NW 8 13 30.09 1019 10 16.09344 0 0
1:52 am 01:52 Mostly Cloudy 27 -3 14 -10 59 59 SW 8 13 30.09 1019 10 16.09344 0 0
2:52 am 02:52 Cloudy 25 -4 14 -10 63 63 SSW 6 9 30.06 1018 10 16.09344 0 0
3:52 am 03:52 Cloudy 25 -4 16 -9 69 69 WSW 5 7 30.06 1018 10 16.09344 0 0
4:52 am 04:52 Mostly Cloudy 27 -3 18 -8 69 69 SW 7 11 30.06 1018 10 16.09344 0 0
5:52 am 05:52 Partly Cloudy 27 -3 18 -8 69 69 W 8 13 30.03 1017 10 16.09344 0 0
6:52 am 06:52 Mostly Cloudy 30 -1 14 -10 51 51 NW 16 26 30.06 1018 10 16.09344 0 0
7:52 am 07:52 Mostly Cloudy 27 -3 9 -13 46 46 NW 15 24 30.12 1020 10 16.09344 0 0
8:52 am 08:52 Mostly Cloudy 27 -3 10 -12 50 50 NW 17 28 30.15 1021 10 16.09344 0 0
9:52 am 09:52 Mostly Cloudy 27 -3 9 -13 46 46 NW 16 26 30.15 1021 10 16.09344 0 0
10:52 am 10:52 Mostly Cloudy 28 -2 7 -14 40 40 NW 20 31 30.15 1021 10 16.09344 0 0
11:52 am 11:52 Mostly Cloudy 27 -3 7 -14 43 43 NW 13 20 30.15 1021 10 16.09344 0 0
12:31 pm 12:31 Cloudy with Light Snow 27 -3 7 -14 43 43 WNW 17 28 30.15 1021 10 16.09344 0.001 0.001
12:52 pm 12:52 Mostly Cloudy 25 -4 7 -14 46 46 NW 21 33 30.15 1021 10 16.09344 0.001 0.001
1:52 pm 13:52 Mostly Cloudy 25 -4 3 -16 39 39 WNW 20 31 30.18 1022 10 16.09344 0 0
2:52 pm 14:52 Mostly Cloudy 27 -3 3 -16 36 36 NW 22 35 30.21 1023 10 16.09344 0.001 0.001
3:52 pm 15:52 Mostly Cloudy 25 -4 0 -18 33 33 NNW 18 30 30.24 1024 10 16.09344 0 0
4:52 pm 16:52 Mostly Cloudy 21 -6 1 -17 42 42 WNW 15 24 30.3 1026 10 16.09344 0 0
5:52 pm 17:52 Partly Cloudy 21 -6 0 -18 38 38 WNW 21 33 30.3 1026 10 16.09344 0 0
6:52 pm 18:52 Partly Cloudy 19 -7 0 -18 42 42 NW 21 33 30.36 1028 10 16.09344 0 0
7:52 pm 19:52 Partly Cloudy 19 -7 -6 -21 32 32 NW 20 31 30.39 1029 10 16.09344 0 0
8:52 pm 20:52 Mostly Clear 18 -8 -9 -23 29 29 NW 23 37 30.42 1030 10 16.09344 0 0
9:52 pm 21:52 Mostly Clear 18 -8 -9 -23 29 29 WNW 16 26 30.45 1031 10 16.09344 0 0
10:52 pm 22:52 Mostly Clear 16 -9 -8 -22 34 34 WNW 14 22 30.48 1032 10 16.09344 0 0
11:52 pm 23:52 Mostly Clear 16 -9 -8 -22 34 34 NW 21 33 30.5 1033 10 16.09344 0 0

Powered by AerisWeather